Location: South Tamworth Observatory
(43.8246°N, 71.3026°W)
Time: 03:54:32
(UTC-05:00)

Amateur Radio Satellites - All Passes

Search period start: 06 March 2015 03:24
Search period end: 07 March 2015 03:24
Location: South Tamworth Observatory, 43.8246°N, 71.3026°W

Satellite Date Start Highest point End Downlink Frequencies (MHz)
Time Altitude Azimuth
Gurwin Techsat 1B 06 Mar 03:31:23 03:36:01 30° 294° (WNW) 03:40:34 435.225
MOZHAYETS 4 06 Mar 03:36:00 03:40:33 77° 75° (ENE) 03:45:09
ITAMSAT 1 06 Mar 03:38:17 03:42:11 21° 297° (WNW) 03:45:56 435.822/435.867
HORYU 2 06 Mar 03:53:07 03:57:26 50° 288° (WNW) 04:01:45 437.375
JAS-2 06 Mar 04:01:19 04:08:49 64° 100° (E) 04:16:38 435.910
PCSat 06 Mar 04:08:27 04:13:48 55° 54° (NE) 04:19:07 145.827
STRAND 1 06 Mar 04:08:39 04:10:24 12° 57° (ENE) 04:12:24 437.568
CUBESAT XI-V 06 Mar 04:10:20 04:13:09 16° 63° (ENE) 04:16:08 437.345
AO-7 06 Mar 04:11:11 04:19:32 80° 107° (ESE) 04:27:50 29.400- 29.500
YUBILEINY 06 Mar 04:36:54 04:43:15 22° 280° (W) 04:49:12 435.215
RS-15 06 Mar 04:53:57 05:03:46 33° 26° (NNE) 05:14:06 29.354- 29.394
PRISM 06 Mar 04:55:21 04:59:15 41° 71° (ENE) 05:03:14 437.425
AIST 1 06 Mar 05:05:01 05:05:50 11° 84° (E) 05:06:55
MOZHAYETS 4 06 Mar 05:16:59 05:18:28 11° 274° (W) 05:19:40
STRAND 1 06 Mar 05:43:42 05:48:51 80° 75° (ENE) 05:54:03 437.568
CUBESAT XI-V 06 Mar 05:45:29 05:50:09 63° 260° (W) 05:54:51 437.345
JAS-2 06 Mar 05:47:00 05:53:28 32° 297° (WNW) 06:00:02 435.910
PCSat 06 Mar 05:52:37 05:56:54 23° 251° (WSW) 06:01:01 145.827
Cubesat XI-IV 06 Mar 05:53:28 05:58:45 54° 100° (E) 06:03:59 437.490
CUTE-I 06 Mar 06:01:17 06:06:37 63° 101° (E) 06:11:55 437.470
AO-7 06 Mar 06:04:58 06:11:37 27° 306° (NW) 06:18:02 29.400- 29.500
PRISM 06 Mar 06:32:06 06:35:01 18° 269° (W) 06:37:48 437.425
ISS 06 Mar 06:33:32 06:35:46 18° 135° (SE) 06:38:04 145.825
AIST 1 06 Mar 06:38:34 06:42:56 72° 280° (W) 06:47:21
GONETS M04 06 Mar 06:51:51 06:58:56 28° 63° (ENE) 07:06:16
O/OREOS (USA 219) 06 Mar 07:04:40 07:06:49 14° 99° (E) 07:09:11 437.305
RS-15 06 Mar 07:06:45 07:18:13 81° 54° (NE) 07:30:13 29.354- 29.394
HO-68 06 Mar 07:13:32 07:17:55 18° 87° (E) 07:22:39 435.675
SO-50 06 Mar 07:26:05 07:29:32 19° 35° (NE) 07:33:06 436.795
STRAND 1 06 Mar 07:26:16 07:28:47 13° 273° (W) 07:31:01 437.568
Cubesat XI-IV 06 Mar 07:34:22 07:38:31 23° 297° (WNW) 07:42:31 437.490
CUTE-I 06 Mar 07:42:25 07:46:16 20° 298° (WNW) 07:49:57 437.470
SEEDS 06 Mar 07:47:43 07:50:33 18° 91° (E) 07:53:31 437.485
CANX-2 06 Mar 07:56:35 08:00:16 28° 95° (E) 08:04:00 2200.000
CINEMA 3 06 Mar 08:08:35 08:10:27 13° 88° (E) 08:12:32 145.822/145.860
ISS 06 Mar 08:08:44 08:11:56 63° 332° (NNW) 08:15:09 145.825
GOMX 1 06 Mar 08:11:35 08:15:38 39° 97° (E) 08:19:34 467.674
CUTE 1.7 + AOD 2 06 Mar 08:14:22 08:18:24 40° 97° (E) 08:22:26 437.475
UNISAT 6 06 Mar 08:16:12 08:18:30 15° 64° (ENE) 08:20:58 437.425
BRITE-PL 06 Mar 08:26:32 08:31:03 89° 102° (ESE) 08:35:16 437.365/2234.400
DOVE 4 06 Mar 08:27:52 08:31:52 40° 97° (E) 08:35:47 437.250
POPSAT HIP 1 06 Mar 08:30:03 08:31:17 11° 62° (ENE) 08:32:44 437.405
POLYITAN 1 06 Mar 08:31:17 08:32:47 12° 62° (ENE) 08:34:29 437.675
TIGRISAT 06 Mar 08:38:06 08:41:31 23° 67° (ENE) 08:44:57 435.000
O/OREOS (USA 219) 06 Mar 08:41:13 08:45:45 65° 296° (WNW) 08:50:20 437.305
AAUSAT CUBESAT 2 06 Mar 08:43:28 08:47:33 51° 99° (E) 08:51:41 437.432
GONETS M04 06 Mar 08:47:59 08:56:42 71° 266° (W) 09:05:25
COMPASS 1 06 Mar 08:49:08 08:53:21 68° 101° (E) 08:57:33 437.405
NANOSAT C BR1 06 Mar 08:49:52 08:52:42 18° 65° (ENE) 08:55:40 145.865
UWE-3 06 Mar 08:53:03 08:55:57 19° 92° (E) 08:59:00 435.000/436.395/437.385
ANTELSAT 06 Mar 08:53:21 08:57:15 33° 70° (ENE) 09:01:09 437.575/2403.000
HO-68 06 Mar 08:59:27 09:06:41 88° 287° (WNW) 09:13:54 435.675
Oscar 11 06 Mar 09:04:44 09:08:51 41° 98° (E) 09:12:58 145.826/435.025
SO-50 06 Mar 09:05:50 09:10:48 88° 236° (SW) 09:15:44 436.795
BUGSAT 1 06 Mar 09:12:48 09:16:10 23° 67° (ENE) 09:19:36 437.445
RS-15 06 Mar 09:20:10 09:29:44 30° 254° (WSW) 09:39:11 29.354- 29.394
QB50P1 06 Mar 09:22:30 09:26:28 38° 70° (ENE) 09:30:27 145.935-145.965
SEEDS 06 Mar 09:22:36 09:26:38 42° 288° (WNW) 09:30:38 437.485
QB50P2 06 Mar 09:27:40 09:31:43 44° 72° (ENE) 09:35:48 145.880/145.840
DELFI C3 06 Mar 09:27:41 09:31:45 59° 100° (E) 09:35:47 145.870
CANX-2 06 Mar 09:32:33 09:36:10 27° 291° (WNW) 09:39:45 2200.000
HUMSAT D 06 Mar 09:32:54 09:36:04 22° 93° (E) 09:39:20 437.325/437.525
DX 1 06 Mar 09:35:54 09:40:01 40° 98° (E) 09:44:08 434.975-435.025
CUBEBUG 2 06 Mar 09:38:02 09:42:12 71° 101° (E) 09:46:22 437.445
DUCHIFAT 1 06 Mar 09:39:02 09:43:13 56° 73° (ENE) 09:47:25 145.980
CINEMA 3 06 Mar 09:44:03 09:48:08 54° 287° (WNW) 09:52:11 145.822/145.860
ISS 06 Mar 09:46:12 09:48:49 22° 351° (N) 09:51:26 145.825
CUBEBUG 1 06 Mar 09:50:00 09:50:30 10° 86° (E) 09:51:18 437.445
GOMX 1 06 Mar 09:50:25 09:53:33 19° 295° (WNW) 09:56:30 467.674
UNISAT 6 06 Mar 09:50:36 09:54:55 59° 259° (W) 09:59:12 437.425
CUTE 1.7 + AOD 2 06 Mar 09:50:57 09:54:06 20° 294° (WNW) 09:57:09 437.475
AISAT 06 Mar 09:57:34 10:01:28 29° 96° (E) 10:05:22 437.250
FUNcube-1 06 Mar 09:57:35 10:01:46 78° 102° (ESE) 10:05:57 145.935
UKube-1 06 Mar 10:00:12 10:04:33 71° 102° (ESE) 10:08:52 .
ZACube-1 06 Mar 10:00:20 10:04:31 85° 102° (ESE) 10:08:43 437.345
POPSAT HIP 1 06 Mar 10:02:21 10:06:38 80° 257° (WSW) 10:10:57 437.405
POLYITAN 1 06 Mar 10:03:55 10:08:12 75° 258° (WSW) 10:12:29 437.675
VELOX 1 06 Mar 10:05:03 10:09:06 34° 97° (E) 10:13:10 145.980
DOVE 4 06 Mar 10:06:25 10:09:25 19° 295° (WNW) 10:12:15 437.250
BRITE-PL 06 Mar 10:08:25 10:08:52 10° 301° (WNW) 10:09:04 437.365/2234.400
TIGRISAT 06 Mar 10:14:09 10:18:09 34° 263° (W) 10:22:05 435.000
AAUSAT CUBESAT 2 06 Mar 10:20:15 10:22:52 16° 295° (WNW) 10:25:21 437.432
50 SAT 06 Mar 10:22:41 10:26:34 54° 100° (E) 10:30:28 437.505
NANOSAT C BR1 06 Mar 10:24:09 10:28:17 45° 261° (W) 10:32:24 145.865
DANDE 06 Mar 10:24:15 10:26:54 79° 260° (W) 10:29:34 436.750
COMPASS 1 06 Mar 10:26:41 10:28:35 13° 297° (WNW) 10:30:17 437.405
UWE-3 06 Mar 10:28:51 10:32:43 38° 289° (WNW) 10:36:35 435.000/436.395/437.385
CUSAT 1 06 Mar 10:30:28 10:32:55 38° 263° (W) 10:35:32 437.405
ANTELSAT 06 Mar 10:30:38 10:34:09 23° 266° (W) 10:37:34 437.575/2403.000
ESTCUBE 1 06 Mar 10:35:36 10:39:50 36° 97° (E) 10:44:02 437.505/2401.250
Oscar 11 06 Mar 10:41:35 10:44:48 20° 294° (WNW) 10:47:53 145.826/435.025
BUGSAT 1 06 Mar 10:47:35 10:51:31 34° 264° (W) 10:55:25 437.445
GONETS M04 06 Mar 10:47:58 10:52:07 14° 285° (WNW) 10:55:40
HO-68 06 Mar 10:48:35 10:53:35 20° 306° (NW) 10:58:19 435.675
SO-50 06 Mar 10:48:47 10:50:43 12° 252° (WSW) 10:52:23 436.795
QB50P1 06 Mar 10:59:16 11:02:31 20° 268° (W) 11:05:39 145.935-145.965
DELFI C3 06 Mar 11:04:26 11:06:32 13° 296° (WNW) 11:08:27 145.870
QB50P2 06 Mar 11:04:56 11:07:54 18° 269° (W) 11:10:44 145.880/145.840
HUMSAT D 06 Mar 11:08:15 11:11:57 32° 290° (WNW) 11:15:38 437.325/437.525
DX 1 06 Mar 11:12:44 11:16:03 21° 295° (WNW) 11:19:15 434.975-435.025
CUBEBUG 2 06 Mar 11:16:54 11:18:26 12° 298° (WNW) 11:19:46 437.445
DUCHIFAT 1 06 Mar 11:17:11 11:19:29 14° 271° (W) 11:21:36 145.980
CUBEBUG 1 06 Mar 11:23:08 11:27:33 78° 286° (WNW) 11:31:55 437.445
ISS 06 Mar 11:23:20 11:25:59 23° 11° (N) 11:28:39 145.825
TISAT 1 06 Mar 11:29:08 11:32:44 27° 95° (E) 11:36:23 437.305
Oscar 19 06 Mar 11:31:25 11:35:51 31° 67° (ENE) 11:40:21 437.125/150
AISAT 06 Mar 11:34:13 11:38:03 28° 292° (WNW) 11:41:46 437.250
FUNcube-1 06 Mar 11:36:32 11:37:35 11° 298° (WNW) 11:38:26 145.935
UKube-1 06 Mar 11:38:08 11:40:13 13° 298° (WNW) 11:42:05 .
Gurwin Techsat 1B 06 Mar 11:38:51 11:39:39 10° 56° (NE) 11:40:45 435.225
SPROUT 06 Mar 11:39:26 11:43:30 40° 98° (E) 11:47:33 437.525
ITAMSAT 1 06 Mar 11:40:51 11:43:31 15° 59° (ENE) 11:46:25 435.822/435.867
VELOX 1 06 Mar 11:41:54 11:45:34 25° 293° (WNW) 11:49:06 145.980
50 SAT 06 Mar 11:59:07 12:01:11 14° 296° (WNW) 12:03:07 437.505
ITUPSAT 1 06 Mar 12:02:35 12:03:12 10° 86° (E) 12:04:09 437.325
ESTCUBE 1 06 Mar 12:12:50 12:16:33 24° 293° (WNW) 12:20:09 437.505/2401.250
SWISSCUBE 06 Mar 12:59:18 13:03:54 43° 98° (E) 13:08:29 437.505
ISS 06 Mar 12:59:35 13:02:50 72° 30° (NNE) 13:06:04 145.825
TISAT 1 06 Mar 13:04:55 13:08:32 27° 292° (WNW) 13:12:03 437.305
BEESAT 06 Mar 13:07:06 13:11:46 48° 99° (E) 13:16:24 436.000
Oscar 19 06 Mar 13:10:28 13:15:09 35° 264° (W) 13:19:49 437.125/150
Gurwin Techsat 1B 06 Mar 13:13:30 13:18:46 68° 73° (ENE) 13:24:05 435.225
SPROUT 06 Mar 13:16:11 13:19:21 20° 294° (WNW) 13:22:25 437.525
ITAMSAT 1 06 Mar 13:17:10 13:22:24 85° 256° (WSW) 13:27:41 435.822/435.867
HORYU 2 06 Mar 13:17:37 13:20:41 19° 65° (ENE) 13:23:53 437.375
AO-7 06 Mar 13:20:47 13:27:33 30° 55° (NE) 13:34:28 29.400- 29.500
ITUPSAT 1 06 Mar 13:37:02 13:41:54 89° 284° (WNW) 13:46:44 437.325
STARS 06 Mar 13:46:33 13:49:04 15° 90° (E) 13:51:45 437.465
YUBILEINY 06 Mar 13:47:59 13:53:27 20° 78° (ENE) 13:59:23 435.215
KKS-1 06 Mar 13:48:59 13:52:38 25° 94° (E) 13:56:20 437.445
JAS-2 06 Mar 14:16:17 14:21:06 29° 62° (ENE) 14:26:32 435.910
ISS 06 Mar 14:36:54 14:38:56 15° 226° (SW) 14:40:55 145.825
VERMONT LUNAR 06 Mar 14:37:17 14:38:34 12° 150° (SSE) 14:39:57 437.305
SWISSCUBE 06 Mar 14:37:43 14:41:32 23° 295° (WNW) 14:45:13 437.505
BEESAT 06 Mar 14:45:41 14:49:19 21° 296° (WNW) 14:52:50 436.000
HORYU 2 06 Mar 14:52:49 14:57:04 45° 261° (W) 15:01:21 437.375
Gurwin Techsat 1B 06 Mar 14:55:57 14:59:21 16° 272° (W) 15:02:32 435.225
ITAMSAT 1 06 Mar 15:01:30 15:02:50 11° 275° (W) 15:03:47 435.822/435.867
AO-7 06 Mar 15:11:25 15:19:45 73° 255° (WSW) 15:28:06 29.400- 29.500
PHONESAT 2.4 06 Mar 15:11:47 15:12:47 11° 149° (SSE) 15:13:53 2401.200-2431.200
ITUPSAT 1 06 Mar 15:17:13 15:19:09 12° 301° (WNW) 15:20:50 437.325
STARS 06 Mar 15:21:39 15:25:56 52° 288° (WNW) 15:30:11 437.465
KKS-1 06 Mar 15:25:21 15:29:21 33° 291° (WNW) 15:33:17 437.445
MOZHAYETS 4 06 Mar 15:30:57 15:33:54 17° 90° (E) 15:37:00
BEESAT 3 06 Mar 15:32:02 15:35:49 38° 118° (ESE) 15:39:42 437.485
Cubesat XI-IV 06 Mar 15:39:46 15:42:45 16° 59° (ENE) 15:45:58 437.490
YUBILEINY 06 Mar 15:40:26 15:49:11 89° 277° (W) 15:58:04 435.215
CUTE-I 06 Mar 15:46:59 15:50:23 18° 61° (ENE) 15:53:58 437.470
JAS-2 06 Mar 16:00:28 16:05:55 48° 263° (W) 16:12:02 435.910
BEESAT 2 06 Mar 16:02:02 16:06:07 68° 122° (ESE) 16:10:17 435.950
VERMONT LUNAR 06 Mar 16:12:42 16:15:53 34° 165° (SSE) 16:19:06 437.305
AIST 2 06 Mar 16:23:28 16:27:29 43° 118° (ESE) 16:31:36 435.215
AUBIESAT-1 06 Mar 16:26:53 16:31:11 54° 105° (ESE) 16:35:46 437.475
M-CUBED/EXP-1 PRIME 06 Mar 16:28:35 16:32:56 63° 107° (ESE) 16:37:33 437.505
AIST 1 06 Mar 16:44:43 16:48:40 32° 74° (ENE) 16:52:37
PHONESAT 2.4 06 Mar 16:47:19 16:50:36 33° 164° (SSE) 16:53:55 2401.200-2431.200
MOZHAYETS 4 06 Mar 17:06:58 17:11:31 53° 287° (WNW) 17:16:01
AO-7 06 Mar 17:09:57 17:14:14 14° 276° (W) 17:17:55 29.400- 29.500
BEESAT 3 06 Mar 17:10:32 17:14:02 26° 316° (NW) 17:17:32 437.485
O/OREOS (USA 219) 06 Mar 17:10:52 17:15:04 34° 58° (ENE) 17:19:15 437.305
Cubesat XI-IV 06 Mar 17:16:51 17:22:15 82° 256° (WSW) 17:27:41 437.490
CUTE-I 06 Mar 17:24:35 17:29:56 72° 257° (WSW) 17:35:21 437.470
YUBILEINY 06 Mar 17:41:07 17:47:32 21° 302° (WNW) 17:53:37 435.215
CUBESAT XI-V 06 Mar 17:41:17 17:45:24 30° 94° (E) 17:49:32 437.345
BEESAT 2 06 Mar 17:41:53 17:44:47 18° 322° (NW) 17:47:36 435.950
HO-68 06 Mar 17:44:56 17:49:13 18° 53° (NE) 17:53:48 435.675
VERMONT LUNAR 06 Mar 17:50:06 17:53:30 49° 182° (S) 17:56:53 437.305
STRAND 1 06 Mar 17:53:35 17:57:41 24° 93° (E) 18:01:52 437.568
BRITE-PL 06 Mar 18:01:31 18:04:56 18° 64° (ENE) 18:08:26 437.365/2234.400
AUBIESAT-1 06 Mar 18:02:41 18:05:45 19° 299° (WNW) 18:08:50 437.475
AIST 2 06 Mar 18:02:43 18:06:17 25° 317° (NW) 18:09:52 435.215
M-CUBED/EXP-1 PRIME 06 Mar 18:04:44 18:07:31 16° 300° (WNW) 18:10:15 437.505
PRISM 06 Mar 18:11:51 18:16:02 58° 101° (E) 18:20:13 437.425
AIST 1 06 Mar 18:22:39 18:26:12 23° 271° (W) 18:29:38
PHONESAT 2.4 06 Mar 18:25:13 18:28:45 50° 180° (S) 18:32:18 2401.200-2431.200
SEEDS 06 Mar 18:42:03 18:44:30 16° 65° (ENE) 18:47:07 437.485
O/OREOS (USA 219) 06 Mar 18:50:30 18:54:24 27° 256° (WSW) 18:58:10 437.305
CANX-2 06 Mar 18:51:18 18:54:43 25° 68° (ENE) 18:58:12 2200.000
PCSat 06 Mar 18:51:43 18:56:37 37° 112° (ESE) 19:01:37 145.827
Cubesat XI-IV 06 Mar 19:02:01 19:03:20 11° 275° (W) 19:04:15 437.490
CUTE 1.7 + AOD 2 06 Mar 19:08:48 19:12:34 34° 71° (ENE) 19:16:26 437.475
CINEMA 3 06 Mar 19:11:29 19:14:28 18° 66° (ENE) 19:17:31 145.822/145.860
CUBESAT XI-V 06 Mar 19:18:41 19:22:50 31° 292° (WNW) 19:26:55 437.345
GOMX 1 06 Mar 19:20:03 19:25:11 56° 74° (ENE) 19:30:05 467.674
VERMONT LUNAR 06 Mar 19:28:00 19:31:04 29° 198° (SSW) 19:34:07 437.305
HO-68 06 Mar 19:28:51 19:35:59 80° 72° (ENE) 19:43:11 435.675
STRAND 1 06 Mar 19:32:13 19:37:08 44° 290° (WNW) 19:41:57 437.568
DOVE 4 06 Mar 19:34:07 19:39:00 53° 73° (ENE) 19:43:40 437.250
AAUSAT CUBESAT 2 06 Mar 19:35:52 19:39:43 40° 72° (ENE) 19:43:39 437.432
BRITE-PL 06 Mar 19:37:25 19:43:01 73° 258° (WSW) 19:48:18 437.365/2234.400
COMPASS 1 06 Mar 19:41:49 19:45:51 54° 74° (ENE) 19:49:57 437.405
PRISM 06 Mar 19:48:41 19:51:08 15° 297° (WNW) 19:53:24 437.425
UWE-3 06 Mar 19:51:55 19:55:04 20° 67° (ENE) 19:58:15 435.000/436.395/437.385
GONETS M04 06 Mar 19:55:42 20:02:36 29° 83° (E) 20:09:46
Oscar 11 06 Mar 20:00:53 20:04:51 38° 71° (ENE) 20:08:52 145.826/435.025
PHONESAT 2.4 06 Mar 20:03:37 20:06:54 32° 197° (SSW) 20:10:11 2401.200-2431.200
SEEDS 06 Mar 20:15:54 20:19:59 50° 261° (W) 20:24:05 437.485
DELFI C3 06 Mar 20:16:59 20:20:48 43° 72° (ENE) 20:24:40 145.870
HUMSAT D 06 Mar 20:26:44 20:29:43 20° 67° (ENE) 20:32:46 437.325/437.525
CANX-2 06 Mar 20:26:50 20:30:34 30° 265° (W) 20:34:18 2200.000
DX 1 06 Mar 20:32:43 20:36:52 42° 71° (ENE) 20:41:03 434.975-435.025
PCSat 06 Mar 20:35:03 20:40:04 37° 311° (NW) 20:45:05 145.827
CUBEBUG 2 06 Mar 20:37:28 20:41:53 71° 75° (ENE) 20:46:12 437.445
CUTE 1.7 + AOD 2 06 Mar 20:45:20 20:48:38 22° 268° (W) 20:51:52 437.475
CINEMA 3 06 Mar 20:46:48 20:51:24 53° 260° (W) 20:55:48 145.822/145.860
CUBEBUG 1 06 Mar 20:47:21 20:48:59 12° 61° (ENE) 20:50:51 437.445
FUNcube-1 06 Mar 20:54:37 20:58:55 73° 75° (ENE) 21:03:09 145.935
UKube-1 06 Mar 20:56:17 21:00:36 72° 74° (ENE) 21:04:58 .
AISAT 06 Mar 20:56:51 21:00:50 33° 69° (ENE) 21:04:54 437.250
ZACube-1 06 Mar 20:57:32 21:01:52 80° 76° (ENE) 21:06:07 437.345
GOMX 1 06 Mar 20:59:51 21:03:39 19° 269° (W) 21:07:10 467.674
VELOX 1 06 Mar 21:04:02 21:08:09 37° 70° (ENE) 21:12:19 145.980
50 SAT 06 Mar 21:10:38 21:14:20 39° 72° (ENE) 21:18:03 437.505
AAUSAT CUBESAT 2 06 Mar 21:12:43 21:15:37 18° 269° (W) 21:18:23 437.432
DOVE 4 06 Mar 21:13:30 21:17:05 19° 269° (W) 21:20:23 437.250
HO-68 06 Mar 21:19:27 21:24:36 20° 271° (W) 21:29:28 435.675
COMPASS 1 06 Mar 21:19:51 21:22:00 13° 272° (W) 21:23:57 437.405
UWE-3 06 Mar 21:27:15 21:31:25 40° 262° (W) 21:35:27 435.000/436.395/437.385
RS-15 06 Mar 21:32:31 21:42:26 44° 111° (ESE) 21:52:38 29.354- 29.394
ESTCUBE 1 06 Mar 21:36:35 21:40:48 40° 70° (ENE) 21:45:04 437.505/2401.250
Oscar 11 06 Mar 21:37:58 21:41:13 20° 268° (W) 21:44:23 145.826/435.025
UNISAT 6 06 Mar 21:41:35 21:45:05 24° 94° (E) 21:48:41 437.425
PHONESAT 2.4 06 Mar 21:43:55 21:44:43 11° 212° (SSW) 21:45:26 2401.200-2431.200
POPSAT HIP 1 06 Mar 21:47:48 21:50:12 15° 90° (E) 21:52:43 437.405
POLYITAN 1 06 Mar 21:49:29 21:52:03 16° 90° (E) 21:54:46 437.675
GONETS M04 06 Mar 21:50:16 21:58:53 65° 283° (WNW) 22:07:32
DELFI C3 06 Mar 21:53:43 21:56:17 16° 270° (W) 21:58:43 145.870
DANDE 06 Mar 21:56:12 21:59:11 15° 93° (E) 22:02:04 436.750
CUSAT 1 06 Mar 21:58:45 22:02:09 17° 95° (E) 22:05:13 437.405
HUMSAT D 06 Mar 22:01:23 22:05:18 38° 263° (W) 22:09:10 437.325/437.525
TIGRISAT 06 Mar 22:04:02 22:08:06 40° 98° (E) 22:12:13 435.000
NANOSAT C BR1 06 Mar 22:08:19 22:11:47 25° 94° (E) 22:15:18 145.865
DX 1 06 Mar 22:10:08 22:13:21 19° 268° (W) 22:16:28 434.975-435.025
CUBEBUG 2 06 Mar 22:17:39 22:19:08 11° 272° (W) 22:20:22 437.445
ANTELSAT 06 Mar 22:20:03 22:24:20 62° 101° (E) 22:28:41 437.575/2403.000
CUBEBUG 1 06 Mar 22:20:21 22:24:48 80° 257° (WSW) 22:29:17 437.445
TISAT 1 06 Mar 22:22:57 22:26:30 26° 68° (ENE) 22:30:05 437.305
BUGSAT 1 06 Mar 22:28:42 22:32:21 30° 95° (E) 22:35:59 437.445
AISAT 06 Mar 22:33:42 22:37:31 26° 266° (W) 22:41:15 437.250
FUNcube-1 06 Mar 22:34:53 22:35:50 10° 273° (W) 22:36:31 145.935
SPROUT 06 Mar 22:34:56 22:38:55 38° 71° (ENE) 22:42:58 437.525
UKube-1 06 Mar 22:35:57 22:37:22 11° 273° (W) 22:38:31 .
VELOX 1 06 Mar 22:41:17 22:44:53 22° 267° (W) 22:48:22 145.980
QB50P1 06 Mar 22:41:56 22:46:07 59° 100° (E) 22:50:17 145.935-145.965
BEESAT 2 06 Mar 22:44:08 22:45:37 12° 32° (NNE) 22:47:13 435.950
50 SAT 06 Mar 22:46:52 22:49:33 17° 269° (W) 22:52:05 437.505
QB50P2 06 Mar 22:47:24 22:51:38 70° 102° (ESE) 22:55:50 145.880/145.840
DUCHIFAT 1 06 Mar 22:58:22 23:02:37 88° 114° (ESE) 23:06:49 145.980
ITUPSAT 1 06 Mar 23:09:45 23:12:33 16° 62° (ENE) 23:15:31 437.325
ESTCUBE 1 06 Mar 23:14:20 23:17:52 21° 268° (W) 23:21:19 437.505/2401.250
UNISAT 6 06 Mar 23:18:05 23:21:57 32° 290° (WNW) 23:25:50 437.425
POPSAT HIP 1 06 Mar 23:22:20 23:26:27 49° 287° (WNW) 23:30:30 437.405
SO-50 06 Mar 23:22:41 23:26:09 22° 113° (ESE) 23:29:49 436.795
POLYITAN 1 06 Mar 23:24:14 23:28:18 46° 288° (WNW) 23:32:20 437.675
DANDE 06 Mar 23:36:19 23:42:29 69° 280° (W) 23:47:02 436.750
CUSAT 1 06 Mar 23:39:33 23:44:59 49° 282° (WNW) 23:49:03 437.405
TIGRISAT 06 Mar 23:41:27 23:44:39 20° 294° (WNW) 23:47:46 435.000
RS-15 06 Mar 23:43:48 23:54:34 59° 314° (NW) 00:05:33 29.354- 29.394
NANOSAT C BR1 06 Mar 23:43:58 23:47:42 30° 291° (WNW) 23:51:19 145.865
BEESAT 3 06 Mar 23:49:51 23:53:45 38° 48° (NE) 23:57:36 437.485
GONETS M04 06 Mar 23:53:34 23:58:00 14° 308° (NW) 00:01:53
YUBILEINY 06 Mar 23:57:27 23:57:49 10° 46° (NE) 23:58:53 435.215
ANTELSAT 06 Mar 23:58:23 00:00:44 14° 297° (WNW) 00:02:56 437.575/2403.000
TISAT 1 06 Mar 23:58:27 00:02:14 30° 264° (W) 00:06:00 437.305
BUGSAT 1 07 Mar 00:04:22 00:07:46 24° 293° (WNW) 00:11:01 437.445
SWISSCUBE 07 Mar 00:07:08 00:11:49 58° 72° (ENE) 00:16:34 437.505
SPROUT 07 Mar 00:11:51 00:15:12 21° 268° (W) 00:18:25 437.525
BEESAT 07 Mar 00:14:51 00:19:34 64° 73° (ENE) 00:24:20 436.000
QB50P1 07 Mar 00:19:15 00:21:35 14° 297° (WNW) 00:23:45 145.935-145.965
BEESAT 2 07 Mar 00:20:31 00:24:40 64° 53° (NE) 00:28:45 435.950
QB50P2 07 Mar 00:25:12 00:27:04 12° 298° (WNW) 00:28:45 145.880/145.840
AIST 2 07 Mar 00:44:01 00:48:09 44° 50° (NE) 00:52:13 435.215
STARS 07 Mar 00:45:08 00:48:00 18° 64° (ENE) 00:51:00 437.465
ITUPSAT 1 07 Mar 00:45:12 00:49:58 67° 259° (WSW) 00:54:47 437.325
KKS-1 07 Mar 00:48:35 00:52:22 28° 68° (ENE) 00:56:13 437.445
SO-50 07 Mar 01:01:52 01:06:24 50° 311° (NW) 01:11:04 436.795
Oscar 19 07 Mar 01:19:57 01:25:06 74° 102° (ESE) 01:30:14 437.125/150
BEESAT 3 07 Mar 01:28:21 01:31:40 23° 246° (WSW) 01:34:53 437.485
Gurwin Techsat 1B 07 Mar 01:28:58 01:33:12 24° 92° (E) 01:37:32 435.225
ITAMSAT 1 07 Mar 01:29:05 01:33:40 31° 95° (E) 01:38:16 435.822/435.867
SWISSCUBE 07 Mar 01:47:04 01:50:09 16° 271° (W) 01:53:03 437.505
YUBILEINY 07 Mar 01:49:05 01:57:36 50° 73° (ENE) 02:06:07 435.215
BEESAT 07 Mar 01:55:10 01:57:57 15° 271° (W) 02:00:31 436.000
PCSat 07 Mar 01:56:53 01:57:59 11° 27° (NNE) 01:59:17 145.827
BEESAT 2 07 Mar 02:00:16 02:02:23 13° 250° (WSW) 02:04:20 435.950
RS-15 07 Mar 02:00:53 02:09:57 28° 345° (NNW) 02:19:09 29.354- 29.394
STARS 07 Mar 02:19:50 02:24:09 50° 260° (W) 02:28:28 437.465
AIST 2 07 Mar 02:23:16 02:26:30 21° 247° (WSW) 02:29:35 435.215
KKS-1 07 Mar 02:25:00 02:28:58 30° 264° (W) 02:32:54 437.445
MOZHAYETS 4 07 Mar 02:34:32 02:37:43 20° 65° (ENE) 02:41:03
HORYU 2 07 Mar 02:42:55 02:46:49 30° 96° (E) 02:50:46 437.375
SO-50 07 Mar 02:46:10 02:48:10 12° 333° (NNW) 02:50:02 436.795
Oscar 19 07 Mar 03:00:47 03:03:55 16° 299° (WNW) 03:06:53 437.125/150
JAS-2 07 Mar 03:07:05 03:13:25 29° 90° (E) 03:20:05 435.910
Gurwin Techsat 1B 07 Mar 03:08:21 03:13:27 46° 290° (WNW) 03:18:29 435.225
ITAMSAT 1 07 Mar 03:08:28 03:13:14 36° 293° (WNW) 03:17:54 435.822/435.867
AUBIESAT-1 07 Mar 03:17:33 03:20:55 86° 71° (ENE) 03:24:30 437.475
